Regional Weather Roundup
Issued by NWS

Home | Current Version | Previous Version | Text Only | Print | Product List | Glossary On
Versions: 1 2 3 4 5 6 7 8 9 10 11 12 13 14 15 16 17 18 19 20 21 22 23 24 25 26 27 28 29 30 31 32 33 34 35 36 37 38 39 40 41 42 43 44 45 46 47 48 49 50
215
ASUS44 KJAN 250110
RWRMS

MISSISSIPPI HOURLY WEATHER ROUNDUP
NATIONAL WEATHER SERVICE JACKSON MS
800 PM CDT FRI OCT 24 2014

NOTE: "FAIR: INDICATES FEW OR NO CLOUDS BELOW 12,000 FEET WITH NO
SIGNIFICANT WEATHER AND/OR OBSTRUCTIONS TO VISIBILITY.

MSZ001>002-007>008-010>013-018>021-025>028-034>036-250200-
NORTHWEST MISSISSIPPI

CITY           SKY/WX    TMP DP  RH WIND       PRES   REMARKS
CLARKSDALE     FAIR      63  54  72 CALM      30.11S
CLEVELAND      FAIR      62  55  78 NW3       30.10S
GREENWOOD      CLEAR     56  53  90 CALM      30.10S
GREENVILLE     CLEAR     60  52  74 CALM      30.10R
GRENADA          N/A    N/A N/A N/A MISG        N/A
OLIVE BRANCH   CLEAR     57  57 100 CALM      30.09S
OXFORD         FAIR      55  54  94 CALM      30.12R
TUNICA         CLEAR     61  54  77 CALM      30.11R
$$

MSZ003>006-009-014>017-022>024-029>033-037>039-250200-
NORTHEAST MISSISSIPPI

CITY           SKY/WX    TMP DP  RH WIND       PRES   REMARKS
COLUMBUS AFB   CLEAR     53  49  86 CALM      30.09R
CORINTH        FAIR      57  54  88 CALM      30.08S
GOLDN TRIANGLE CLEAR     57  45  62 CALM      30.09R
STARKVILLE     FAIR      54  48  82 CALM      30.10R
TUPELO         CLEAR     58  52  80 CALM      30.09R
$$

MSZ040-058-250200-
CENTRAL MISSISSIPPI

CITY           SKY/WX    TMP DP  RH WIND       PRES   REMARKS
JACKSON INTL   PTCLDY    57  48  72 CALM      30.11R
JACKSON HAWKNS CLEAR     59  48  67 CALM      30.11R
MERIDIAN KEY   CLEAR     54  49  83 CALM      30.09R
MERIDIAN NAS   CLEAR     59  49  69 NW5       30.09R
RAYMOND        FAIR      52  48  87 MISG      30.11S
VICKSBURG      CLEAR     52  48  86 CALM      30.11R
$$

MSZ059>079-250200-
SOUTH MISSISSIPPI

CITY           SKY/WX    TMP DP  RH WIND       PRES   REMARKS
BROOKHAVEN     FAIR      55  48  76 CALM      30.12R
HATTIESBURG    CLEAR     56  51  84 CALM      30.09R
MCCOMB         CLEAR     65  46  50 N7        30.10R
NATCHEZ        CLEAR     55  50  82 CALM      30.12R
PINE BELT      CLEAR     61  45  55 NW6       30.10R
$$

MSZ080>082-250200-
COASTAL MISSISSIPPI

CITY           SKY/WX    TMP DP  RH WIND       PRES   REMARKS
BAY ST LOUIS   CLEAR     57  52  82 CALM      30.07R
BILOXI         CLEAR     67  50  53 NW3       30.06R
PASCAGOULA     CLEAR     53  49  86 CALM      30.06R
GULFPORT       CLEAR     63  50  62 NW3       30.06R
$$



USA.gov is the U.S. government's official web portal to all federal, state and local government web resources and services.